Theta_e
315 311 306 306 297 294 290 292 297 299 300 301 307 305 306 310 306 298 324 334 336 337 340 342 346 344 341 340 342 344 344 343 340 341 339 340 341 342 341 341 345 344 341 342 340 340 340 340 340
310 312 307 299 293 288 290 292 298 298 305 310 307 309 308 306 318 324 327 336 336 338 340 340 344 345 341 340 341 343 343 342 340 340 339 339 339 340 339 338 338 339 337 339 338 340 340 340 339
310 307 302 295 290 289 290 293 298 300 305 302 304 310 310 311 319 326 331 335 337 336 339 340 343 345 343 341 341 343 341 341 342 341 340 340 338 338 338 338 336 336 337 338 338 338 339 338 338
305 302 300 293 290 293 292 294 302 299 299 306 308 307 312 321 324 328 336 336 335 335 337 340 344 345 344 343 342 342 341 341 341 339 343 341 339 339 339 338 337 334 336 336 336 336 336 336 336
303 299 293 290 291 293 294 300 300 300 298 300 304 304 310 321 329 335 334 334 332 332 335 339 343 344 343 343 341 342 340 340 341 340 340 340 341 342 339 337 336 335 334 333 334 333 334 334 334
297 296 291 289 290 293 297 299 298 297 299 303 308 308 312 324 331 333 334 332 333 332 335 337 336 339 341 342 342 342 341 339 340 340 339 338 339 340 339 337 334 334 333 332 331 332 332 333 332
296 293 289 288 291 293 298 299 296 297 298 300 312 307 310 320 331 332 331 331 332 333 334 334 335 336 335 338 338 339 340 339 340 340 340 338 339 339 338 336 334 333 333 332 330 331 330 330 330
298 295 288 289 290 292 296 298 298 298 297 305 313 306 309 319 329 330 331 330 330 331 332 331 331 334 335 334 332 334 336 336 337 336 334 331 331 333 333 331 333 332 332 331 329 329 328 329 328
298 291 288 291 291 293 295 295 296 298 299 301 305 313 317 324 329 328 327 327 329 330 330 330 330 332 332 331 328 329 331 331 329 328 326 323 323 325 326 328 331 331 331 330 328 327 325 324 326
294 290 292 296 295 294 296 296 297 298 299 302 310 316 322 326 327 325 325 324 325 327 329 329 329 333 331 333 328 327 327 326 323 322 321 321 321 322 324 323 327 329 328 329 327 326 323 318 313
295 291 294 294 296 298 296 295 296 297 295 302 308 315 320 324 325 325 325 326 324 326 328 327 328 329 334 333 326 325 323 322 322 319 319 319 319 319 318 317 317 317 316 316 316 315 314 314 313
293 297 295 297 297 296 296 296 295 298 299 302 313 321 320 321 323 325 324 325 324 324 326 328 327 328 330 332 329 324 323 321 319 319 319 318 316 316 315 314 314 314 313 312 311 312 312 313 313
295 294 294 295 296 295 297 294 294 296 297 306 319 320 321 321 322 323 324 324 325 325 326 327 327 327 328 328 329 324 322 321 320 319 319 318 316 315 314 314 313 312 312 311 311 311 312 311 312
298 294 293 294 295 296 295 292 295 296 299 314 318 318 320 321 321 319 320 323 324 326 327 328 327 327 328 326 327 327 324 322 321 319 318 318 318 316 315 313 313 312 312 312 311 310 310 310 310
297 294 293 292 293 294 294 291 294 295 300 312 315 317 318 320 320 321 324 324 325 326 327 329 329 328 327 327 326 327 327 325 322 321 318 318 319 317 315 313 312 312 312 311 310 309 309 308 308
293 294 289 292 293 293 293 290 295 295 299 306 311 314 316 318 321 323 324 324 323 325 325 327 330 329 330 330 329 329 328 326 325 323 320 318 319 318 315 314 313 313 312 310 309 308 307 306 306
289 285 285 289 292 292 291 290 292 293 295 298 303 309 314 317 318 320 321 323 324 324 324 324 326 328 328 330 329 329 330 329 329 327 325 320 318 318 317 315 314 313 311 309 308 306 306 305 304
284 284 286 289 289 290 288 290 291 292 294 295 296 300 304 309 314 320 320 322 325 325 325 326 326 326 327 329 330 329 328 328 329 328 326 324 321 319 317 315 313 312 310 308 306 306 304 304 304
289 288 287 288 290 288 288 289 291 290 289 291 292 293 295 297 306 304 314 320 320 322 325 326 325 327 326 326 326 328 327 327 326 327 327 325 323 319 319 316 313 311 310 309 306 305 305 303 303
287 285 284 288 290 288 285 288 290 290 291 292 293 291 293 294 294 295 295 309 317 321 324 325 326 326 326 328 326 326 328 329 329 328 327 326 323 321 320 318 316 311 309 307 306 305 302 302 303
286 285 284 287 288 288 285 284 286 288 289 292 292 294 295 295 296 295 294 296 310 317 321 325 326 326 327 328 324 320 322 324 325 325 325 324 324 322 320 319 318 315 313 311 309 308 306 304 304
283 288 288 287 285 282 285 279 284 285 287 288 292 294 295 296 294 294 294 293 297 310 317 323 325 326 327 327 325 323 323 322 323 321 322 322 322 323 321 320 318 317 315 315 313 310 309 306 304
286 289 288 287 283 280 281 280 283 282 285 288 290 293 293 294 293 293 294 295 293 298 309 315 321 324 325 326 326 324 323 324 319 317 318 319 320 321 321 321 319 317 315 315 313 308 308 307 307
289 286 285 283 281 277 281 280 281 283 287 288 290 290 291 290 291 291 292 295 295 296 301 305 313 316 319 324 324 323 324 320 317 317 321 323 324 324 322 320 319 319 317 315 314 312 309 309 309
286 283 276 276 276 276 279 278 284 288 289 289 290 290 289 288 289 290 294 295 297 298 299 299 300 300 305 316 323 323 322 321 319 319 321 322 322 320 322 320 318 317 318 317 315 313 311 310 308
283 284 277 272 273 276 280 277 283 291 292 290 290 289 291 292 293 293 294 296 298 300 301 302 302 300 298 298 304 316 322 323 322 322 322 319 318 321 321 320 320 318 316 315 314 313 312 310 308
284 282 285 279 271 274 277 281 287 289 289 288 289 288 291 292 293 294 295 297 298 300 301 302 302 301 300 297 296 297 305 315 319 318 318 321 319 316 318 317 316 315 314 313 312 309 307 306 304
287 290 282 279 271 271 276 277 280 285 287 288 288 289 289 290 292 293 295 296 297 299 301 301 302 302 302 302 301 300 301 306 311 312 312 312 313 311 312 312 312 310 309 308 308 305 302 301 300
284 282 283 283 279 274 271 277 284 288 288 289 289 289 290 292 292 293 294 295 296 297 299 300 300 301 301 301 301 302 304 305 306 309 311 311 309 309 309 307 305 304 303 303 302 300 300 299 297
287 285 286 282 277 278 277 279 285 287 288 288 289 289 289 291 292 292 294 294 294 296 298 299 299 300 300 300 300 301 302 305 307 308 307 307 306 305 304 303 301 301 300 301 299 297 297 296 293
Wind_Speed
6 6 2 6 6 6 2 3 1 4 3 1 4 4 6 4 4 4 2 5 11 9 6 8 10 12 12 12 11 11 11 15 14 14 14 13 14 15 15 15 14 16 17 16 16 16 17 17 16
4 4 5 3 6 3 5 3 5 3 6 9 7 3 4 2 3 5 6 6 10 9 6 6 11 13 13 12 9 12 11 12 15 13 14 14 14 14 15 15 14 14 15 15 16 18 17 16 16
2 5 5 5 4 4 5 4 5 1 6 2 5 4 4 5 2 8 5 9 10 8 7 6 11 13 12 12 10 11 10 10 13 12 14 15 15 15 14 15 14 15 15 16 16 17 17 16 16
3 5 5 5 4 5 6 4 7 6 2 5 4 6 2 4 8 7 11 11 9 7 7 8 12 13 13 11 10 11 10 8 12 10 12 14 15 13 15 17 14 15 15 15 16 16 16 15 16
5 4 4 2 3 4 3 5 6 6 3 3 2 3 3 2 6 13 12 10 11 7 6 7 12 12 12 12 11 11 11 11 11 11 12 14 13 14 16 16 14 14 14 14 14 15 15 14 15
5 4 4 4 3 4 2 3 4 2 5 4 6 5 4 3 11 11 9 9 8 10 6 6 9 11 11 12 11 10 12 11 11 11 12 11 11 14 15 15 13 13 12 13 13 15 15 15 14
7 5 5 4 4 2 4 6 4 5 6 5 10 7 1 4 7 10 8 7 7 7 6 5 5 7 9 10 9 9 10 10 10 9 10 10 8 12 12 12 11 11 11 12 13 13 14 13 13
6 6 4 4 6 6 5 6 4 6 3 3 3 7 5 6 9 9 8 6 7 6 6 6 5 5 6 6 9 9 9 10 10 9 9 8 9 9 9 8 10 10 9 10 11 12 13 12 12
3 5 3 5 6 7 5 5 4 1 6 0 4 6 4 16 11 10 8 4 7 6 6 6 5 6 6 5 5 7 8 8 8 7 8 6 4 5 6 7 10 9 8 7 9 12 12 11 9
5 4 8 4 4 5 7 6 9 5 4 1 1 2 11 17 15 15 14 13 11 11 8 6 6 6 6 5 5 4 4 4 4 5 5 4 5 4 4 6 8 8 7 6 7 8 9 7 4
3 5 4 2 2 4 4 3 5 8 4 7 9 7 13 16 14 14 13 14 14 10 7 6 6 5 8 7 3 2 2 2 3 5 4 3 3 3 3 3 3 3 4 2 4 4 4 4 3
2 4 3 3 3 1 7 6 6 7 7 6 10 18 14 15 15 14 13 11 10 9 11 9 7 8 6 6 4 3 3 3 3 4 5 4 3 3 3 3 3 3 2 3 2 1 2 3 3
1 2 1 3 3 1 6 3 4 7 1 5 10 10 17 15 12 8 9 8 9 11 10 10 9 8 7 7 6 4 4 4 4 4 5 4 4 4 3 3 3 3 2 3 2 1 1 0 1
4 1 4 4 3 1 6 2 5 5 4 8 11 11 11 14 14 6 8 10 11 11 12 11 11 10 8 7 8 6 4 5 4 4 4 5 4 4 4 4 3 3 3 2 2 2 2 2 1
2 4 7 4 1 2 1 1 7 2 5 9 10 10 9 10 8 15 14 13 12 10 12 14 13 12 11 10 8 6 6 5 4 4 6 6 5 5 5 4 4 4 3 3 1 1 1 1 2
4 5 1 5 3 1 5 8 4 5 9 10 8 7 8 11 13 11 9 9 8 8 10 9 10 12 13 11 9 7 6 5 6 5 5 6 6 6 5 3 4 4 3 3 3 2 2 2 2
1 4 3 9 3 1 4 7 4 3 7 8 9 9 11 10 8 9 9 9 9 10 9 9 9 12 11 10 7 8 9 7 7 7 6 7 7 7 5 4 4 4 3 3 2 2 2 2 2
6 6 5 12 4 2 3 8 5 1 7 10 9 9 9 10 16 15 12 11 9 9 10 10 9 9 9 6 7 5 5 5 5 6 6 8 7 8 6 4 4 4 3 3 3 4 2 2 2
5 7 6 4 2 3 7 8 10 5 3 8 9 9 9 13 14 9 10 11 8 8 12 13 12 12 8 7 5 5 7 4 4 6 8 8 7 8 7 5 5 5 5 5 4 2 4 3 2
3 5 5 1 2 3 3 12 9 5 7 8 11 9 12 9 9 10 8 10 13 16 15 14 14 12 10 9 7 6 5 5 5 7 7 9 9 9 8 8 6 6 4 5 5 5 2 2 3
5 7 5 4 4 0 1 8 6 6 5 6 8 10 10 16 14 10 9 11 12 14 16 15 15 14 13 13 4 1 0 2 3 3 5 7 9 8 9 8 8 8 7 7 8 7 7 4 3
6 5 4 5 6 5 4 6 6 4 8 6 11 13 17 15 8 9 9 8 11 16 10 11 12 13 12 12 9 11 10 11 8 5 4 6 8 10 11 10 9 8 7 7 8 7 7 5 6
8 5 6 3 3 1 2 2 8 2 6 10 14 17 13 12 10 11 11 10 7 6 8 7 9 11 11 12 13 11 10 8 3 3 5 5 6 7 9 10 10 9 7 8 8 6 8 6 4
7 7 7 5 3 4 7 7 6 5 9 7 6 8 10 9 10 8 6 5 3 3 6 7 8 7 8 11 11 12 12 8 6 5 7 7 7 6 7 7 8 9 8 9 8 8 8 8 6
4 8 1 2 3 6 1 2 9 7 11 8 8 7 7 5 5 6 8 7 6 6 6 6 8 6 7 7 11 12 13 11 12 9 8 7 6 4 7 8 8 7 9 8 7 7 8 8 7
6 10 7 7 4 5 3 9 8 13 11 7 8 7 1 3 2 4 6 6 7 7 6 7 6 5 7 7 8 7 10 7 8 8 7 5 4 5 7 7 6 7 6 6 6 5 6 5 5
6 8 6 8 3 3 6 7 12 9 11 7 7 5 8 6 5 7 5 4 4 5 5 6 6 4 5 6 5 6 6 6 7 6 6 5 5 4 5 5 5 5 5 5 5 3 3 3 3
11 10 4 2 5 5 5 4 6 7 10 7 7 9 7 5 7 5 5 5 4 4 4 6 6 6 5 5 5 5 5 5 5 5 6 4 2 3 4 4 4 4 4 4 4 3 4 4 3
4 5 2 5 6 6 2 8 10 14 10 11 10 8 8 9 7 6 6 4 3 2 2 3 4 5 5 4 3 4 3 4 4 4 4 4 4 4 5 5 5 5 6 5 6 5 5 6 5
4 8 9 8 6 2 3 8 3 10 6 5 6 8 8 8 7 7 7 6 5 5 5 6 5 4 3 4 4 4 4 5 5 5 5 5 6 5 6 6 7 5 7 6 6 6 5 5 5
Wind_Direction
337 350 60 42 51 61 309 243 339 132 107 278 96 145 162 81 151 204 337 147 131 139 142 131 132 121 116 116 113 101 93 101 92 97 85 94 95 88 87 82 81 82 83 79 79 78 83 82 80
337 356 42 84 83 56 276 270 172 206 152 129 97 96 53 108 103 128 114 153 134 136 124 127 134 127 126 120 116 103 98 96 100 91 91 94 90 91 88 85 85 83 89 86 80 77 80 81 80
22 38 79 90 108 169 219 216 185 85 158 157 98 58 141 163 70 159 151 137 131 125 124 136 134 134 130 127 122 114 100 100 103 99 108 101 93 96 97 94 92 91 91 85 80 77 76 74 74
38 13 37 88 203 247 202 210 166 138 198 58 116 67 359 228 154 174 141 131 126 126 127 140 144 140 136 131 122 109 111 118 100 99 104 104 109 109 108 98 90 91 84 80 83 76 75 79 78
33 55 66 85 261 249 248 173 178 144 131 93 90 170 17 17 112 132 140 137 142 134 138 143 146 141 139 134 130 124 116 103 108 106 100 101 101 102 100 98 98 94 89 86 83 78 75 82 81
47 91 73 208 259 293 152 143 183 128 150 153 81 109 155 127 131 143 146 142 147 144 143 146 144 145 147 141 137 131 126 123 118 116 109 110 113 107 105 105 107 104 95 87 83 82 78 85 89
117 93 196 193 214 278 178 146 181 166 153 199 148 127 228 172 155 140 138 128 134 133 134 137 144 146 147 139 139 138 133 134 128 117 113 97 94 112 108 104 107 106 96 88 84 83 73 82 87
107 95 129 222 179 236 198 156 173 157 224 74 139 169 195 188 155 124 117 131 134 140 146 150 147 146 145 152 146 145 138 130 127 125 119 104 101 102 104 96 102 104 94 90 85 82 71 86 93
130 74 181 220 155 233 153 152 166 92 126 336 169 155 208 136 131 129 131 124 145 156 161 156 157 155 149 148 151 144 144 142 134 127 123 104 109 115 115 123 118 111 104 97 85 85 75 68 74
96 125 206 215 197 229 189 166 167 139 139 239 234 34 126 140 155 159 169 175 177 179 180 177 160 163 143 153 147 147 146 146 142 139 139 127 129 126 109 105 108 110 109 98 88 73 64 63 78
153 178 210 247 250 237 205 183 179 126 230 207 189 154 146 151 167 171 177 182 183 185 175 180 168 161 165 166 144 137 141 153 156 156 157 147 134 129 123 121 104 99 86 53 55 38 48 83 89
162 218 212 277 345 191 177 133 182 176 216 187 178 164 151 167 176 180 181 181 178 179 184 180 178 168 173 170 174 157 157 173 185 183 170 155 154 164 164 156 158 143 143 135 92 60 69 77 97
218 267 241 320 317 227 139 184 211 219 355 108 131 162 171 175 184 189 182 176 180 186 189 185 176 177 171 174 179 168 180 178 192 188 189 171 173 183 177 186 176 173 156 165 167 156 163 159 126
197 115 317 320 313 280 143 182 139 232 119 124 154 177 183 186 186 163 184 189 186 187 192 183 183 177 172 177 185 186 178 187 187 191 201 194 189 184 189 188 201 199 195 195 187 192 218 228 216
181 59 345 292 289 295 102 275 225 155 132 163 185 188 188 206 187 202 197 202 189 194 185 183 184 181 176 186 187 184 195 187 196 200 197 197 191 192 190 193 200 211 202 195 208 228 183 270 318
141 90 25 296 170 283 117 249 264 172 145 187 194 201 208 211 216 218 206 203 187 187 191 177 177 182 186 191 189 189 191 191 197 196 193 198 199 190 195 205 218 198 184 187 189 194 237 242 240
360 181 152 303 233 146 147 247 229 194 181 194 209 209 215 227 234 232 218 201 193 196 188 192 186 176 185 186 184 188 189 196 203 197 202 198 195 196 192 200 210 187 193 198 196 222 204 223 257
170 167 194 204 239 223 189 251 260 194 194 215 211 218 215 225 228 227 217 214 207 197 206 203 200 196 174 166 183 178 187 188 196 193 195 193 207 197 189 204 199 186 186 205 206 206 203 217 248
165 172 193 192 194 168 222 247 253 236 209 234 237 224 226 234 235 226 215 211 205 200 206 205 200 201 185 192 183 192 204 193 192 193 193 190 194 200 193 198 187 186 200 206 187 184 217 259 199
154 170 212 57 141 141 305 265 248 215 234 215 225 228 231 236 239 240 212 205 205 209 208 207 209 201 199 203 207 198 194 198 195 197 194 190 191 194 201 193 205 189 180 195 198 188 202 243 184
179 180 180 202 130 186 22 286 269 254 243 238 242 232 235 229 234 236 220 207 210 211 207 204 202 199 197 202 177 100 159 130 177 190 200 197 193 199 201 204 200 196 192 206 207 195 186 212 212
193 206 159 146 131 215 164 270 269 251 265 236 245 237 239 234 231 225 219 206 199 219 209 206 196 197 198 187 185 199 204 215 217 193 187 194 196 198 198 204 205 203 201 213 209 195 200 168 216
217 138 161 140 122 121 226 212 266 161 273 261 240 237 241 234 217 221 218 217 206 196 198 187 182 192 192 188 193 195 207 216 204 187 192 201 201 203 211 205 203 203 200 218 205 186 199 205 189
138 82 53 58 98 251 209 174 257 202 209 246 238 237 245 247 232 233 213 142 149 166 174 173 171 173 177 185 193 196 207 196 184 187 208 213 212 212 212 208 215 212 206 202 207 213 196 207 223
116 124 29 287 251 222 343 220 242 236 250 226 244 274 291 290 218 207 185 160 148 151 159 153 157 164 170 181 193 199 208 203 202 193 207 209 206 194 214 199 207 215 210 210 209 201 208 202 210
173 163 155 187 218 223 121 233 243 229 256 263 247 248 298 253 225 202 184 171 162 161 153 151 162 175 183 193 207 210 211 210 210 203 202 201 204 209 206 208 204 212 191 193 196 206 206 192 208
201 201 160 103 19 59 214 282 301 246 259 235 245 204 213 224 207 198 183 178 166 159 166 164 161 169 198 220 220 222 220 206 202 195 194 203 196 221 190 187 191 197 187 185 179 171 159 168 151
190 152 165 9 145 247 264 260 234 256 233 206 223 221 221 210 227 222 195 185 193 185 162 148 151 144 144 165 190 209 216 216 210 187 198 199 176 147 169 130 138 108 97 107 120 104 99 110 94
143 178 133 133 159 173 251 259 220 231 204 206 221 205 198 216 212 204 212 206 183 121 153 140 150 165 159 132 121 120 129 160 151 148 139 132 111 126 119 117 104 88 95 85 84 87 100 98 86
209 182 182 192 209 246 150 270 254 252 249 208 244 203 209 214 197 193 193 184 186 192 187 193 191 158 146 141 114 109 111 105 97 102 101 104 100 80 92 100 83 95 84 76 97 94 100 115 100